| time (UTC) | temp C | wind direction | speed KPH | gust KPH | rain 1hr cm | rain 24hr cm | rain mn cm | humidity % | barometer mb |
| 20260504192751 | 21 | 208 | 4.8 | 14.5 | 0.00 | 0.00 | 0.00 | 32 | 1011.2 |
| 20260504192248 | 21 | 73 | 6.4 | 19.3 | 0.00 | 0.00 | 0.00 | 31 | 1011.5 |
| 20260504191747 | 21 | 43 | 4.8 | 8.0 | 0.00 | 0.00 | 0.00 | 31 | 1011.5 |
| 20260504191243 | 21 | 114 | 4.8 | 9.7 | 0.00 | 0.00 | 0.00 | 32 | 1011.7 |
| 20260504190739 | 21 | 78 | 8.0 | 14.5 | 0.00 | 0.00 | 0.00 | 32 | 1011.6 |
| 20260504190235 | 21 | 101 | 11.3 | 12.9 | 0.00 | 0.00 | 0.00 | 32 | 1011.8 |
| 20260504185732 | 21 | 64 | 9.7 | 24.1 | 0.00 | 0.00 | 0.00 | 31 | 1011.6 |
| 20260504185229 | 21 | 113 | 11.3 | 16.1 | 0.00 | 0.00 | 0.00 | 32 | 1011.9 |
| 20260504184725 | 21 | 12 | 6.4 | 9.7 | 0.00 | 0.00 | 0.00 | 32 | 1012.0 |
| 20260504184221 | 21 | 61 | 9.7 | 9.7 | 0.00 | 0.00 | 0.00 | 31 | 1012.0 |
| 20260504183717 | 21 | 81 | 6.4 | 9.7 | 0.00 | 0.00 | 0.00 | 31 | 1012.2 |
| 20260504183214 | 21 | 8 | 6.4 | 14.5 | 0.00 | 0.00 | 0.00 | 31 | 1012.1 |
| 20260504182712 | 21 | 291 | 3.2 | 16.1 | 0.00 | 0.00 | 0.00 | 32 | 1012.0 |
| 20260504182209 | 21 | 46 | 4.8 | 8.0 | 0.00 | 0.00 | 0.00 | 33 | 1012.0 |
| 20260504181707 | 21 | 83 | 4.8 | 11.3 | 0.00 | 0.00 | 0.00 | 32 | 1012.2 |
| 20260504181204 | 21 | 110 | 4.8 | 9.7 | 0.00 | 0.00 | 0.00 | 31 | 1012.2 |
| 20260504180703 | 21 | 3 | 8.0 | 11.3 | 0.00 | 0.00 | 0.00 | 31 | 1012.3 |
| 20260504180201 | 21 | 0 | 6.4 | 11.3 | 0.00 | 0.00 | 0.00 | 32 | 1012.6 |
| 20260504175658 | 20 | 316 | 9.7 | 16.1 | 0.00 | 0.00 | 0.00 | 31 | 1012.4 |
| 20260504175155 | 21 | 284 | 6.4 | 19.3 | 0.00 | 0.00 | 0.00 | 31 | 1012.7 |
| 20260504174653 | 21 | 86 | 4.8 | 12.9 | 0.00 | 0.00 | 0.00 | 32 | 1012.9 |
| 20260504174149 | 20 | 44 | 8.0 | 9.7 | 0.00 | 0.00 | 0.00 | 32 | 1012.7 |
| 20260504173646 | 21 | 291 | 4.8 | 14.5 | 0.00 | 0.00 | 0.00 | 31 | 1012.6 |
| 20260504173144 | 21 | 359 | 3.2 | 8.0 | 0.00 | 0.00 | 0.00 | 31 | 1012.8 |
| 20260504172640 | 21 | 1 | 4.8 | 8.0 | 0.00 | 0.00 | 0.00 | 32 | 1012.7 |
| 20260504172137 | 21 | 77 | 1.6 | 8.0 | 0.00 | 0.00 | 0.00 | 32 | 1012.9 |
| 20260504171633 | 20 | 100 | 8.0 | 9.7 | 0.00 | 0.00 | 0.00 | 32 | 1012.8 |
| 20260504171131 | 20 | 46 | 3.2 | 11.3 | 0.00 | 0.00 | 0.00 | 32 | 1012.8 |
| 20260504170627 | 20 | 299 | 3.2 | 9.7 | 0.00 | 0.00 | 0.00 | 32 | 1012.7 |
| 20260504170125 | 20 | 108 | 9.7 | 12.9 | 0.00 | 0.00 | 0.00 | 33 | 1012.9 |
| 20260504151010 | 18 | 34 | 4.8 | 6.4 | 0.00 | 0.00 | 0.00 | 35 | 1014.5 |
| 20260504150508 | 18 | 211 | 6.4 | 14.5 | 0.00 | 0.00 | 0.00 | 35 | 1014.6 |
| 20260504140933 | 17 | 44 | 12.9 | 12.9 | 0.00 | 0.00 | 0.00 | 39 | 1014.8 |
| 20260504140430 | 17 | 54 | 6.4 | 9.7 | 0.00 | 0.00 | 0.00 | 40 | 1014.7 |
| 20260504130355 | 16 | 122 | 3.2 | 8.0 | 0.00 | 0.00 | 0.00 | 43 | 1015.4 |
| 20260504120317 | 13 | 345 | 4.8 | 14.5 | 0.00 | 0.00 | 0.00 | 49 | 1015.8 |
| 20260504110241 | 12 | 18 | 4.8 | 9.7 | 0.00 | 0.00 | 0.00 | 46 | 1015.6 |
| 20260504100205 | 11 | 359 | 3.2 | 8.0 | 0.00 | 0.00 | 0.00 | 46 | 1015.4 |
| 20260504090128 | 12 | 82 | 4.8 | 11.3 | 0.00 | 0.00 | 0.00 | 44 | 1015.1 |
| 20260504081558 | 13 | 62 | 3.2 | 11.3 | 0.00 | 0.00 | 0.00 | 38 | 1014.9 |
| 20260504081054 | 13 | 33 | 9.7 | 9.7 | 0.00 | 0.00 | 0.00 | 39 | 1014.8 |
| 20260504080551 | 13 | 36 | 6.4 | 9.7 | 0.00 | 0.00 | 0.00 | 38 | 1014.8 |
| 20260504050403 | 13 | 34 | 6.4 | 12.9 | 0.00 | 0.00 | 0.00 | 37 | 1014.2 |
| 20260504045900 | 13 | 37 | 9.7 | 9.7 | 0.00 | 0.00 | 0.00 | 36 | 1014.3 |
| 20260504045355 | 13 | 3 | 6.4 | 9.7 | 0.00 | 0.00 | 0.00 | 37 | 1014.1 |
| 20260504044853 | 13 | 62 | 3.2 | 8.0 | 0.00 | 0.00 | 0.00 | 36 | 1014.2 |
| 20260504044350 | 13 | 28 | 4.8 | 11.3 | 0.00 | 0.00 | 0.00 | 37 | 1014.3 |
| 20260504043848 | 13 | 58 | 3.2 | 11.3 | 0.00 | 0.00 | 0.00 | 37 | 1014.1 |
| 20260504043344 | 13 | 32 | 8.0 | 17.7 | 0.00 | 0.00 | 0.00 | 35 | 1014.1 |
| 20260504042842 | 13 | 68 | 6.4 | 6.4 | 0.00 | 0.00 | 0.00 | 36 | 1013.9 |
| 20260504042338 | 14 | 58 | 6.4 | 17.7 | 0.00 | 0.00 | 0.00 | 35 | 1014.1 |
| 20260504041834 | 14 | 76 | 4.8 | 9.7 | 0.00 | 0.00 | 0.00 | 35 | 1014.1 |
| 20260504041330 | 14 | 107 | 3.2 | 11.3 | 0.00 | 0.00 | 0.00 | 35 | 1013.9 |
| 20260504040826 | 14 | 7 | 3.2 | 14.5 | 0.00 | 0.00 | 0.00 | 35 | 1013.8 |
| 20260504040324 | 14 | 89 | 6.4 | 9.7 | 0.00 | 0.00 | 0.00 | 35 | 1014.0 |
| 20260504035820 | 14 | 53 | 4.8 | 6.4 | 0.00 | 0.00 | 0.00 | 34 | 1014.0 |
| 20260504035318 | 14 | 50 | 8.0 | 11.3 | 0.00 | 0.00 | 0.00 | 34 | 1013.8 |
| 20260504034815 | 14 | 73 | 4.8 | 9.7 | 0.00 | 0.00 | 0.00 | 35 | 1013.9 |
| 20260504034312 | 14 | 83 | 1.6 | 6.4 | 0.00 | 0.00 | 0.00 | 35 | 1013.9 |
| 20260504033809 | 14 | 53 | 4.8 | 9.7 | 0.00 | 0.00 | 0.00 | 34 | 1013.8 |
| 20260504033307 | 14 | 125 | 6.4 | 8.0 | 0.00 | 0.00 | 0.00 | 34 | 1013.8 |
| 20260504032803 | 14 | 309 | 3.2 | 6.4 | 0.00 | 0.00 | 0.00 | 34 | 1013.8 |
| 20260504032300 | 14 | 55 | 6.4 | 8.0 | 0.00 | 0.00 | 0.00 | 34 | 1013.9 |
| 20260504031757 | 14 | 81 | 4.8 | 9.7 | 0.00 | 0.00 | 0.00 | 34 | 1013.8 |
| 20260504031255 | 14 | 93 | 4.8 | 8.0 | 0.00 | 0.00 | 0.00 | 34 | 1013.7 |
| 20260504030750 | 14 | 109 | 6.4 | 19.3 | 0.00 | 0.00 | 0.00 | 33 | 1013.8 |
| 20260504030248 | 14 | 17 | 4.8 | 9.7 | 0.00 | 0.00 | 0.00 | 33 | 1013.9 |
| 20260504025744 | 14 | 60 | 11.3 | 12.9 | 0.00 | 0.00 | 0.00 | 33 | 1014.0 |
| 20260504025241 | 14 | 80 | 4.8 | 8.0 | 0.00 | 0.00 | 0.00 | 33 | 1013.7 |
| 20260504024738 | 15 | 120 | 3.2 | 6.4 | 0.00 | 0.00 | 0.00 | 33 | 1014.0 |
| 20260504024235 | 15 | 53 | 6.4 | 6.4 | 0.00 | 0.00 | 0.00 | 31 | 1013.9 |
| 20260504023732 | 15 | 50 | 3.2 | 6.4 | 0.00 | 0.00 | 0.00 | 31 | 1013.9 |
| 20260504023228 | 15 | 66 | 4.8 | 8.0 | 0.00 | 0.00 | 0.00 | 31 | 1013.9 |
| 20260504022724 | 15 | 104 | 9.7 | 9.7 | 0.00 | 0.00 | 0.00 | 31 | 1013.9 |
| 20260504022220 | 15 | 49 | 6.4 | 11.3 | 0.00 | 0.00 | 0.00 | 31 | 1013.9 |
| 20260504021718 | 15 | 72 | 3.2 | 6.4 | 0.00 | 0.00 | 0.00 | 30 | 1014.2 |
| 20260504021215 | 15 | 130 | 3.2 | 8.0 | 0.00 | 0.00 | 0.00 | 31 | 1014.0 |
| 20260504020711 | 15 | 63 | 1.6 | 4.8 | 0.00 | 0.00 | 0.00 | 31 | 1013.9 |
| 20260504020208 | 15 | 51 | 8.0 | 8.0 | 0.00 | 0.00 | 0.00 | 30 | 1013.9 |
| 20260504015704 | 15 | 72 | 4.8 | 6.4 | 0.00 | 0.00 | 0.00 | 30 | 1013.9 |
| 20260504015200 | 15 | 249 | 3.2 | 12.9 | 0.00 | 0.00 | 0.00 | 29 | 1013.8 |
| 20260504014656 | 15 | 114 | 1.6 | 8.0 | 0.00 | 0.00 | 0.00 | 30 | 1013.9 |
| 20260504014153 | 15 | 41 | 3.2 | 6.4 | 0.00 | 0.00 | 0.00 | 29 | 1013.7 |
| 20260504013651 | 15 | 1 | 3.2 | 4.8 | 0.00 | 0.00 | 0.00 | 29 | 1013.7 |
| 20260504013148 | 15 | 46 | 4.8 | 6.4 | 0.00 | 0.00 | 0.00 | 29 | 1013.8 |
| 20260504012645 | 15 | 87 | 3.2 | 6.4 | 0.00 | 0.00 | 0.00 | 29 | 1013.8 |
| 20260504012143 | 15 | 50 | 3.2 | 9.7 | 0.00 | 0.00 | 0.00 | 29 | 1013.6 |
| 20260504011639 | 15 | 323 | 11.3 | 14.5 | 0.00 | 0.00 | 0.00 | 29 | 1013.5 |
| 20260504011136 | 15 | 63 | 3.2 | 6.4 | 0.00 | 0.00 | 0.00 | 29 | 1013.5 |
| 20260504010632 | 15 | 34 | 3.2 | 6.4 | 0.00 | 0.00 | 0.00 | 29 | 1013.4 |
| 20260504010128 | 15 | 67 | 3.2 | 4.8 | 0.00 | 0.00 | 0.00 | 30 | 1013.4 |
| 20260504005625 | 15 | 7 | 1.6 | 4.8 | 0.00 | 0.00 | 0.00 | 29 | 1013.3 |
| 20260504005122 | 15 | 71 | 4.8 | 6.4 | 0.00 | 0.00 | 0.00 | 30 | 1013.3 |
| 20260504004620 | 15 | 52 | 3.2 | 3.2 | 0.00 | 0.00 | 0.00 | 29 | 1013.2 |
| 20260504004117 | 15 | 305 | 3.2 | 9.7 | 0.00 | 0.00 | 0.00 | 29 | 1013.3 |
| 20260504003613 | 15 | 317 | 8.0 | 9.7 | 0.00 | 0.00 | 0.00 | 29 | 1013.2 |
| 20260504003110 | 15 | 95 | 3.2 | 12.9 | 0.00 | 0.00 | 0.00 | 29 | 1013.1 |
| 20260504002606 | 15 | 313 | 4.8 | 8.0 | 0.00 | 0.00 | 0.00 | 28 | 1012.9 |
| 20260504002104 | 15 | 327 | 1.6 | 12.9 | 0.00 | 0.00 | 0.00 | 28 | 1012.9 |
| 20260504001602 | 15 | 302 | 17.7 | 32.2 | 0.00 | 0.00 | 0.00 | 28 | 1012.9 |
| 20260504001057 | 15 | 353 | 3.2 | 9.7 | 0.00 | 0.00 | 0.00 | 28 | 1012.7 |
| 20260504000555 | 15 | 315 | 3.2 | 17.7 | 0.00 | 0.00 | 0.00 | 28 | 1012.7 |
| 20260504000052 | 15 | 271 | 9.7 | 14.5 | 0.00 | 0.00 | 0.00 | 28 | 1012.8 |
| 20260503235550 | 15 | 314 | 8.0 | 11.3 | 0.00 | 0.00 | 0.00 | 28 | 1012.6 |
| 20260503235047 | 15 | 314 | 9.7 | 9.7 | 0.00 | 0.00 | 0.00 | 28 | 1012.5 |
| 20260503234544 | 15 | 307 | 8.0 | 9.7 | 0.00 | 0.00 | 0.00 | 27 | 1012.6 |
| 20260503234043 | 15 | 286 | 12.9 | 19.3 | 0.00 | 0.00 | 0.00 | 27 | 1012.5 |
| 20260503233539 | 15 | 277 | 9.7 | 14.5 | 0.00 | 0.00 | 0.00 | 27 | 1012.4 |
| 20260503233035 | 15 | 335 | 9.7 | 16.1 | 0.00 | 0.00 | 0.00 | 27 | 1012.2 |
| 20260503232532 | 15 | 320 | 12.9 | 16.1 | 0.00 | 0.00 | 0.00 | 27 | 1012.2 |
| 20260503232030 | 15 | 327 | 11.3 | 14.5 | 0.00 | 0.00 | 0.00 | 27 | 1012.2 |
| 20260503231527 | 15 | 286 | 17.7 | 27.4 | 0.00 | 0.00 | 0.00 | 26 | 1012.0 |
| 20260503231024 | 15 | 282 | 22.5 | 35.4 | 0.00 | 0.00 | 0.00 | 26 | 1012.0 |
| 20260503230520 | 15 | 80 | 4.8 | 16.1 | 0.00 | 0.00 | 0.00 | 26 | 1011.9 |
| 20260503230018 | 15 | 348 | 8.0 | 9.7 | 0.00 | 0.00 | 0.00 | 26 | 1012.0 |
| 20260503225515 | 15 | 349 | 14.5 | 29.0 | 0.00 | 0.00 | 0.00 | 26 | 1011.8 |
| 20260503225010 | 15 | 337 | 14.5 | 17.7 | 0.00 | 0.00 | 0.00 | 26 | 1011.9 |
| 20260503224508 | 15 | 320 | 25.7 | 27.4 | 0.00 | 0.00 | 0.00 | 25 | 1012.1 |
| 20260503224005 | 15 | 322 | 20.9 | 29.0 | 0.00 | 0.00 | 0.00 | 26 | 1012.0 |
| 20260503223503 | 15 | 313 | 25.7 | 40.2 | 0.00 | 0.00 | 0.00 | 25 | 1012.2 |
| 20260503222958 | 15 | 279 | 29.0 | 33.8 | 0.00 | 0.00 | 0.00 | 25 | 1012.0 |
| 20260503222457 | 15 | 65 | 4.8 | 19.3 | 0.00 | 0.00 | 0.00 | 26 | 1012.0 |
| 20260503221954 | 15 | 318 | 4.8 | 33.8 | 0.00 | 0.00 | 0.00 | 25 | 1011.9 |
| 20260503221452 | 15 | 286 | 6.4 | 25.7 | 0.00 | 0.00 | 0.00 | 26 | 1011.8 |
| 20260503220949 | 15 | 178 | 6.4 | 19.3 | 0.00 | 0.00 | 0.00 | 26 | 1011.8 |
| 20260503220445 | 15 | 282 | 11.3 | 29.0 | 0.00 | 0.00 | 0.00 | 25 | 1011.8 |
| 20260503215942 | 15 | 2 | 3.2 | 24.1 | 0.00 | 0.00 | 0.00 | 26 | 1012.0 |
| 20260503215439 | 15 | 334 | 8.0 | 9.7 | 0.00 | 0.00 | 0.00 | 26 | 1012.0 |
| 20260503214937 | 15 | 318 | 4.8 | 32.2 | 0.00 | 0.00 | 0.00 | 26 | 1012.0 |
| 20260503214435 | 15 | 336 | 12.9 | 16.1 | 0.00 | 0.00 | 0.00 | 26 | 1011.9 |
| 20260503213932 | 15 | 47 | 8.0 | 11.3 | 0.00 | 0.00 | 0.00 | 26 | 1012.0 |
| 20260503213430 | 15 | 292 | 22.5 | 29.0 | 0.00 | 0.00 | 0.00 | 26 | 1011.9 |
| 20260503212926 | 15 | 313 | 12.9 | 25.7 | 0.00 | 0.00 | 0.00 | 26 | 1011.9 |
| 20260503212423 | 15 | 295 | 20.9 | 27.4 | 0.00 | 0.00 | 0.00 | 26 | 1012.0 |
| 20260503211921 | 14 | 329 | 11.3 | 27.4 | 0.00 | 0.00 | 0.00 | 26 | 1011.9 |
| 20260503211418 | 14 | 1 | 3.2 | 25.7 | 0.00 | 0.00 | 0.00 | 26 | 1011.8 |
| 20260503210913 | 14 | 287 | 20.9 | 32.2 | 0.00 | 0.00 | 0.00 | 26 | 1011.9 |
| 20260503210410 | 14 | 59 | 3.2 | 33.8 | 0.00 | 0.00 | 0.00 | 27 | 1011.6 |
| 20260503205910 | 15 | 285 | 11.3 | 20.9 | 0.00 | 0.00 | 0.00 | 26 | 1011.7 |
| 20260503205408 | 14 | 286 | 9.7 | 25.7 | 0.00 | 0.00 | 0.00 | 27 | 1011.7 |
| 20260503204904 | 14 | 6 | 12.9 | 17.7 | 0.00 | 0.00 | 0.00 | 27 | 1011.6 |
| 20260503204401 | 13 | 53 | 3.2 | 4.8 | 0.00 | 0.00 | 0.00 | 28 | 1011.6 |
| 20260503203858 | 14 | 336 | 6.4 | 37.0 | 0.00 | 0.00 | 0.00 | 27 | 1011.6 |
| 20260503203355 | 13 | 295 | 16.1 | 25.7 | 0.00 | 0.00 | 0.00 | 27 | 1011.5 |
| 20260503202852 | 13 | 307 | 37.0 | 37.0 | 0.00 | 0.00 | 0.00 | 27 | 1011.7 |
| 20260503202350 | 13 | 310 | 8.0 | 24.1 | 0.00 | 0.00 | 0.00 | 27 | 1011.8 |
| 20260503201849 | 13 | 329 | 41.8 | 51.5 | 0.00 | 0.00 | 0.00 | 26 | 1012.1 |
| 20260503201345 | 14 | 331 | 19.3 | 33.8 | 0.00 | 0.00 | 0.00 | 27 | 1012.0 |
| 20260503200843 | 14 | 29 | 3.2 | 32.2 | 0.00 | 0.00 | 0.00 | 28 | 1012.0 |
| 20260503200338 | 14 | 308 | 20.9 | 24.1 | 0.00 | 0.00 | 0.00 | 28 | 1012.0 |
| 20260503195836 | 13 | 332 | 19.3 | 19.3 | 0.00 | 0.00 | 0.00 | 28 | 1011.9 |
| 20260503195332 | 14 | 346 | 17.7 | 22.5 | 0.00 | 0.00 | 0.00 | 28 | 1012.1 |
| 20260503194830 | 13 | 133 | 3.2 | 25.7 | 0.00 | 0.00 | 0.00 | 30 | 1012.0 |
| 20260503194326 | 13 | 271 | 14.5 | 33.8 | 0.00 | 0.00 | 0.00 | 28 | 1012.1 |
| 20260503193822 | 13 | 236 | 9.7 | 40.2 | 0.00 | 0.00 | 0.00 | 29 | 1012.1 |
| 20260503193318 | 13 | 294 | 12.9 | 41.8 | 0.00 | 0.00 | 0.00 | 29 | 1012.1 |